Fort Collins, CO

8:58 AM MST on December 14, 2019 (GMT -0700)
Fort Collins-Loveland Municipal

Weather History for KFNL - October, 2019

Change the Weather History Date:

Thursday, October 17, 2019

  Actual Average Record
Temperature  
Mean Temperature 56 °F -  
Max Temperature 76 °F - 84 °F (2003)
Min Temperature 36 °F - 28 °F (1996)
Degree Days  
Heating Degree Days 9    
Month to date heating degree days 265  
Cooling Degree Days 0    
Month to date cooling degree days 0  
Growing Degree Days 7 (Base 50)    
Moisture  
Dew Point 25 °F    
Average Humidity 44    
Maximum Humidity 79    
Minimum Humidity 9    
Precipitation  
Precipitation 0.00 in - 0.10 in (2006)
Snow  
Snow 0.00 in - - ()
Snow Depth 0.00 in    
Sea Level Pressure  
Sea Level Pressure 29.68 in    
Wind  
Wind Speed 4 mph (North)    
Max Wind Speed 8 mph    
Max Gust Speed -    
Visibility 10 miles    
Events      
T = Trace of Precipitation, MM = Missing Value Source: NWS Daily Summary

Daily Weather History Graph

Daily Weather History Graph

Search for Another Location

Airport or City:

Astronomy

Oct. 17, 2019 Rise Set
Actual Time 7:12 AM MDT 6:17 PM MDT
Civil Twilight 6:45 AM MDT 6:44 PM MDT
Nautical Twilight 6:13 AM MDT 7:16 PM MDT
Astronomical Twilight 5:42 AM MDT 7:47 PM MDT
Moon 8:50 PM MDT (10/17) 10:47 AM MDT (10/17)
Length of Visible Light 11h 59m
Length of Day
11h 04m
Waning Gibbous, 86% of the Moon is Illuminated
Oct 17
Waning Gibbous
Oct 21
Last Quarter
Oct 27
New
Nov 4
First Quarter
Nov 12
Full

Hourly Weather History & Observations

Time (MDT) Temp. Windchill Dew Point Humidity Pressure Visibility Wind Dir Wind Speed Gust Speed Precip Events Conditions
12:56 AM 46.9 °F - 28.0 °F 48% 29.91 in 10.0 mi SSE 4.6 mph - N/A   Clear
1:56 AM 48.0 °F - 27.0 °F 44% 29.87 in 10.0 mi West 3.5 mph - N/A   Clear
2:56 AM 44.1 °F 42.5 °F 28.9 °F 55% 29.85 in 10.0 mi NNE 3.5 mph - N/A   Clear
3:56 AM 43.0 °F 39.5 °F 23.0 °F 45% 29.84 in 10.0 mi NE 5.8 mph - N/A   Clear
4:56 AM 41.0 °F 38.0 °F 33.1 °F 73% 29.82 in 10.0 mi North 4.6 mph - N/A   Clear
5:56 AM 45.0 °F 43.5 °F 25.0 °F 46% 29.81 in 10.0 mi NNE 3.5 mph - N/A   Clear
6:56 AM 42.1 °F - 34.0 °F 73% 29.83 in 10.0 mi Calm Calm - N/A   Clear
7:56 AM 39.9 °F - 34.0 °F 79% 29.84 in 10.0 mi Calm Calm - N/A   Clear
8:56 AM 46.9 °F - 28.0 °F 48% 29.83 in 10.0 mi Calm Calm - N/A   Clear
9:56 AM 55.9 °F - 27.0 °F 33% 29.78 in 10.0 mi North 4.6 mph - N/A   Clear
10:56 AM 59.0 °F - 27.0 °F 29% 29.75 in 10.0 mi NW 3.5 mph - N/A   Clear
11:56 AM 68.0 °F - 21.0 °F 17% 29.68 in 10.0 mi NNE 5.8 mph - N/A   Clear
12:56 PM 71.1 °F - 21.9 °F 16% 29.65 in 10.0 mi Calm Calm - N/A   Clear
1:56 PM 75.9 °F - 19.9 °F 12% 29.58 in 10.0 mi SSE 8.1 mph - N/A   Clear
2:56 PM 75.0 °F - 12.0 °F 9% 29.57 in 10.0 mi Calm Calm - N/A   Clear
3:56 PM 73.9 °F - 19.9 °F 13% 29.56 in 10.0 mi South 4.6 mph - N/A   Clear
4:56 PM 73.0 °F - 26.1 °F 17% 29.55 in 10.0 mi NW 4.6 mph - N/A   Clear
5:56 PM 70.0 °F - 28.0 °F 21% 29.51 in 10.0 mi Calm Calm - N/A   Clear
6:56 PM 66.0 °F - 23.0 °F 20% 29.54 in 10.0 mi ENE 3.5 mph - N/A   Clear
7:56 PM 51.1 °F - 27.0 °F 39% 29.58 in 10.0 mi WNW 5.8 mph - N/A   Clear
8:56 PM 53.1 °F - 26.1 °F 35% 29.54 in 10.0 mi North 6.9 mph - N/A   Clear
9:56 PM 50.0 °F - 24.1 °F 36% 29.53 in 10.0 mi West 4.6 mph - N/A   Clear
10:56 PM 51.1 °F - 25.0 °F 36% 29.51 in 10.0 mi NNE 8.1 mph - N/A   Clear
11:56 PM 52.0 °F - 23.0 °F 32% 29.47 in 10.0 mi NE 6.9 mph - N/A   Clear